User: anonymous   Login
Location: Unspecified
(0.0000°N, 0.0000°E)
Time: 01:04:37
(UTC+00:00)
Language:

STARLINK-31078 - Orbit

View from above orbital plane
View from above orbital plane
View from above satellite
View from above satellite

Ground track
Ground track

The orbit is defined by the following mean orbital elements,

1 58638U          26145.61367490 +.00000000 +00000-0 +15128-4 0 00008
2 58638  43.0031 352.8652 0001027 270.0173  90.0561 15.27577940    02
Epoch (UTC): 25 May 2026 14:43:41
Eccentricity: 0.0001027
inclination: 43.0031°
perigee height: 482 km
apogee height: 484 km
right ascension of ascending node: 352.8652°
argument of perigee: 270.0173°
revolutions per day: 15.27577940
mean anomaly at epoch: 90.0561°

The dashed part of the orbit path shows where the satellite is in the earth's shadow,  

DLR